FW8288 Weather Reports


Display with metric or nautical units.
time (UTC)temp
F
wind
direction
speed
MPH
gust
MPH
rain 1hr
in
rain 24hr
in
rain mn
in
humidity
%
barometer
mb
20260507151557 65 164 2.0 6.0 0.00 0.00 0.00 80 1017.0
20260507150059 65 164 2.0 4.0 0.00 0.00 0.00 81 1017.3
20260507144602 65 164 2.0 4.0 0.00 0.00 0.00 83 1017.3
20260507143119 65 164 1.0 8.0 0.00 0.00 0.00 84 1017.1
20260507141604 65 165 2.0 5.0 0.00 0.00 0.00 84 1016.4
20260507140058 65 165 2.0 6.0 0.00 0.00 0.00 83 1016.5
20260507134559 65 164 3.0 5.0 0.00 0.00 0.00 83 1016.1
20260507133057 65 165 2.0 6.0 0.00 0.00 0.00 83 1016.4
20260507131605 65 165 2.0 7.0 0.00 0.00 0.00 83 1016.7
20260507124605 66 164 1.0 5.0 0.00 0.00 0.00 84 1016.8
20260507123057 66 164 2.0 4.0 0.00 0.00 0.00 84 1016.5
20260507121559 66 164 2.0 5.0 0.00 0.00 0.00 84 1016.1
20260507120057 67 164 1.0 3.0 0.00 0.00 0.00 84 1015.7
20260507114610 67 164 1.0 4.0 0.00 0.00 0.00 83 1015.6
20260507113129 67 0 1.0 4.0 0.00 0.00 0.00 83 1015.2
20260507111559 67 164 0.0 4.0 0.00 0.00 0.00 83 1014.7
20260507110059 67 164 0.0 2.0 0.00 0.00 0.00 83 1014.9
20260507104559 67 0 1.0 3.0 0.00 0.00 0.00 83 1014.7
20260507103059 67 164 0.0 3.0 0.00 0.00 0.00 83 1014.7
20260507101557 67 164 1.0 4.0 0.00 0.00 0.00 83 1014.6
20260507100106 67 164 1.0 4.0 0.00 0.00 0.00 83 1014.5
20260507094602 67 164 1.0 3.0 0.00 0.00 0.00 83 1014.3
20260507093058 67 164 0.0 3.0 0.00 0.00 0.00 83 1014.1
20260507091635 67 164 1.0 3.0 0.00 0.00 0.00 83 1013.7
20260507090058 67 164 0.0 4.0 0.00 0.00 0.00 83 1013.8
20260507084610 67 164 1.0 4.0 0.00 0.00 0.00 82 1014.2
20260507083057 67 164 1.0 3.0 0.00 0.00 0.00 82 1014.1
20260507081600 67 164 1.0 4.0 0.00 0.00 0.00 82 1014.1
20260507080100 67 0 0.0 3.0 0.00 0.00 0.00 81 1014.0
20260507074600 67 164 1.0 4.0 0.00 0.00 0.00 81 1013.9
20260507073102 67 164 1.0 4.0 0.00 0.00 0.00 81 1014.2
20260507071557 68 164 0.0 3.0 0.00 0.00 0.00 81 1014.3
20260507070104 68 164 2.0 6.0 0.00 0.00 0.00 80 1014.6
20260507064559 68 164 1.0 3.0 0.00 0.00 0.00 81 1014.4
20260507063059 68 0 0.0 3.0 0.00 0.00 0.00 81 1014.5
20260507061558 68 164 2.0 4.0 0.00 0.00 0.00 81 1014.6
20260507054558 68 164 1.0 6.0 0.00 0.00 0.00 81 1014.0
20260507053059 69 164 1.0 6.0 0.00 0.00 0.00 80 1013.9
20260507051559 69 164 0.0 5.0 0.00 0.00 0.00 80 1013.7
20260507044610 70 0 0.0 2.0 0.00 0.00 0.00 80 1014.1
20260507043109 70 164 1.0 4.0 0.00 0.00 0.00 79 1013.9
20260507041601 71 164 0.0 4.0 0.00 0.00 0.00 78 1013.9
20260507040058 71 164 2.0 5.0 0.00 0.00 0.00 78 1013.9
20260507034559 72 164 2.0 4.0 0.00 0.00 0.00 78 1014.0
20260507033059 72 164 1.0 5.0 0.00 0.00 0.00 77 1013.7
20260507031558 73 164 2.0 5.0 0.00 0.00 0.00 78 1013.1
20260507030056 73 164 2.0 4.0 0.00 0.00 0.00 78 1012.8
20260507024558 73 164 2.0 6.0 0.00 0.00 0.00 78 1012.7
20260507023108 74 164 1.0 5.0 0.00 0.00 0.00 78 1012.4
20260507021557 74 164 0.0 7.0 0.00 0.00 0.00 78 1011.8
20260507020104 75 165 1.0 7.0 0.00 0.00 0.00 78 1011.7
20260507014558 75 165 1.0 5.0 0.00 0.00 0.00 78 1011.5
20260507013101 76 0 0.0 5.0 0.00 0.00 0.00 78 1011.4
20260507011603 76 165 1.0 8.0 0.00 0.00 0.00 78 1011.0
20260507010058 77 165 1.0 6.0 0.00 0.00 0.00 78 1010.8
20260507004610 78 165 0.0 5.0 0.00 0.00 0.00 79 1010.5
20260507003116 80 165 3.0 8.0 0.00 0.00 0.00 76 1010.1
20260507001616 83 166 1.0 6.0 0.00 0.00 0.00 80 1009.7
20260506234603 85 166 2.0 5.0 0.00 0.00 0.00 77 1009.6
20260506233100 87 166 0.0 3.0 0.00 0.00 0.00 73 1009.5
20260506231607 87 0 0.0 0.0 0.00 0.00 0.00 72 1009.3
20260506230115 87 0 0.0 3.0 0.00 0.00 0.00 70 1009.1
20260506224559 87 166 1.0 3.0 0.00 0.00 0.00 69 1009.1
20260506223107 88 166 2.0 5.0 0.00 0.00 0.00 70 1009.2
20260506221612 88 0 0.0 3.0 0.00 0.00 0.00 69 1009.1
20260506220058 88 166 1.0 4.0 0.00 0.00 0.00 70 1009.0
20260506214559 89 166 1.0 5.0 0.00 0.00 0.00 68 1008.9
20260506213103 89 166 1.0 5.0 0.00 0.00 0.00 68 1009.1
20260506211559 88 166 2.0 5.0 0.00 0.00 0.00 70 1009.1
20260506210100 88 166 4.0 7.0 0.00 0.00 0.00 68 1009.3
20260506204602 88 166 1.0 4.0 0.00 0.00 0.00 71 1009.3
20260506203122 88 166 1.0 6.0 0.00 0.00 0.00 70 1009.6
20260506201600 87 166 2.0 5.0 0.00 0.00 0.00 72 1009.6
20260506194601 86 165 3.0 6.0 0.00 0.00 0.00 71 1009.8
20260506193106 87 165 1.0 6.0 0.00 0.00 0.00 72 1009.8
20260506191559 87 165 1.0 3.0 0.00 0.00 0.00 73 1010.1
20260506190058 86 165 1.0 6.0 0.00 0.00 0.00 74 1010.3
20260506184600 86 165 1.0 5.0 0.00 0.00 0.00 75 1010.4
20260506183108 85 165 1.0 4.0 0.00 0.00 0.00 77 1010.6
20260506181604 84 165 0.0 3.0 0.00 0.00 0.00 77 1010.8
20260506174604 83 165 0.0 5.0 0.00 0.00 0.00 80 1011.4
20260506173109 83 165 0.0 2.0 0.00 0.00 0.00 80 1011.8
20260506171601 82 165 0.0 3.0 0.00 0.00 0.00 82 1011.7
20260506170109 81 0 1.0 6.0 0.00 0.00 0.00 84 1011.9
20260506164626 80 165 1.0 3.0 0.00 0.00 0.00 87 1011.7
20260506163111 79 0 0.0 0.0 0.00 0.00 0.00 87 1011.9
20260506161601 79 165 1.0 4.0 0.00 0.00 0.00 86 1011.6
20260506160122 79 0 0.0 3.0 0.00 0.00 0.00 86 1011.4
20260506154600 80 165 0.0 2.0 0.00 0.00 0.00 85 1011.4
20260506153058 80 165 0.0 2.0 0.00 0.00 0.00 84 1011.4